Wind_Speed
15 11 8 12 12 11 14 18 18 17 16 17 22 21 24 24 29 28 26 29 30 30 28 30 29 27 29 30 30 33 37 35 36 37 37 38 41 41 41 38 34 34 36 38
19 12 8 13 13 14 16 16 19 22 25 27 27 23 28 26 30 28 30 30 28 28 29 30 30 29 31 33 29 36 33 35 40 39 38 39 40 40 39 36 36 37 38 40
19 16 16 10 13 19 22 22 25 29 29 32 30 26 30 32 31 32 33 30 27 27 28 30 29 28 30 31 34 31 37 40 40 41 38 38 38 39 39 38 39 39 41 42
21 21 24 12 13 19 27 26 29 32 36 33 32 37 29 34 34 34 32 28 28 29 29 29 25 29 31 35 34 37 38 41 43 42 39 38 39 39 39 41 42 43 44 45
22 20 24 14 16 23 27 28 32 36 37 37 34 40 35 35 33 33 30 29 28 29 29 26 27 29 35 36 37 39 41 43 42 41 41 37 38 39 39 42 45 45 44 44
21 22 21 20 19 22 27 30 34 37 37 37 37 37 38 38 33 32 31 29 29 29 30 28 29 31 35 38 38 40 45 42 41 42 42 38 38 38 40 42 44 43 44 45
21 27 26 25 30 29 27 30 35 39 39 42 37 40 38 35 35 34 34 33 30 30 29 29 29 32 37 39 41 42 42 43 44 45 43 41 40 41 40 43 45 45 44 44
23 29 23 26 26 31 31 29 31 39 40 40 34 37 37 37 36 35 32 30 30 29 28 28 32 36 37 40 42 47 46 47 48 47 46 43 44 42 43 43 45 44 44 42
28 26 28 29 30 32 32 31 33 37 42 42 41 38 39 36 36 34 31 34 33 28 26 31 34 38 41 44 45 48 51 50 48 46 46 43 40 41 44 42 44 44 42 42
23 25 24 23 24 26 29 30 35 37 37 40 41 37 34 35 34 34 32 35 32 30 30 34 41 45 43 47 50 53 53 50 48 45 44 41 41 41 44 42 41 40 39 41
26 26 25 25 28 32 34 37 39 38 38 40 34 32 31 30 32 32 35 36 35 34 36 41 46 45 47 51 53 54 51 48 46 45 41 39 38 40 42 40 39 38 39 38
24 26 27 30 32 34 35 35 35 29 26 25 29 30 32 32 33 33 38 38 37 36 41 46 44 44 49 52 53 45 51 48 46 42 38 38 40 39 38 38 37 36 38 35
26 27 31 35 35 27 23 24 26 26 25 25 29 30 32 33 34 35 37 38 39 40 40 44 43 48 52 45 42 46 48 46 41 39 42 45 38 38 38 39 36 38 38 33
28 33 32 26 19 17 19 22 25 29 29 28 27 27 29 32 35 36 37 38 40 42 45 46 47 53 48 54 46 43 41 38 40 40 44 37 37 39 38 36 37 37 37 31
24 20 19 21 20 19 21 21 23 21 24 28 29 27 29 34 36 35 36 39 41 44 46 47 49 47 42 37 36 36 39 40 38 30 33 36 37 38 38 38 37 37 36 29
21 18 19 21 21 23 22 23 25 25 28 25 24 25 33 33 30 34 38 41 43 45 47 50 47 38 31 33 34 37 43 31 28 31 36 36 38 40 41 42 40 38 36 30
20 19 16 17 19 18 19 20 21 24 23 22 22 28 27 29 33 37 39 44 46 48 50 49 39 30 31 31 30 35 32 30 34 35 37 38 40 43 46 47 43 40 35 29
17 17 18 18 18 17 18 19 20 22 22 23 25 26 28 32 35 39 41 44 47 48 48 38 31 30 30 30 31 32 30 34 35 38 40 43 47 51 53 52 48 39 32 28
16 20 21 18 14 13 16 19 18 17 21 23 22 24 29 32 36 41 42 45 47 50 39 30 28 28 26 30 30 29 31 34 38 41 45 50 54 57 59 56 49 39 29 23
17 17 14 13 13 15 18 18 16 17 23 18 22 26 30 34 37 40 42 45 48 45 29 28 28 27 28 29 28 29 31 37 41 45 50 57 64 66 62 54 40 31 25 20
12 12 13 14 17 17 17 16 19 19 20 19 24 27 32 35 38 40 42 43 45 34 26 26 28 28 24 26 28 28 34 39 44 49 55 64 68 64 53 39 25 17 18 19
13 15 14 14 16 19 20 19 20 19 16 21 24 29 33 36 37 38 39 41 42 30 25 28 28 25 23 26 28 31 36 41 46 52 61 67 69 62 43 24 10 6 13 20
15 15 16 16 16 17 19 21 17 14 17 21 25 29 33 35 36 37 37 38 41 31 25 27 25 23 23 26 29 31 35 40 46 54 60 67 66 56 34 16 8 8 18 19
15 16 16 15 15 16 18 13 13 15 18 22 26 30 33 35 35 36 37 40 40 36 25 27 27 25 26 26 29 30 35 39 45 52 57 64 61 49 26 16 14 16 19 22
13 13 13 12 13 14 13 14 15 17 20 23 26 29 33 34 35 36 38 38 40 39 31 25 27 25 25 26 27 30 33 38 42 48 52 59 57 41 29 23 20 20 22 22
14 12 13 9 9 12 16 16 17 20 22 24 26 29 32 34 35 36 37 37 38 37 34 25 24 27 26 27 27 27 31 35 38 42 45 49 51 38 30 26 23 23 23 28
Wind_Direction
199 192 242 265 268 287 317 311 310 318 312 310 321 332 338 332 331 322 322 321 314 311 309 308 306 304 306 306 309 304 307 305 307 309 309 308 305 303 302 297 289 289 291 294
227 200 253 260 273 281 291 303 308 310 307 312 317 329 335 326 326 322 324 316 310 311 306 304 306 305 305 306 304 308 306 303 307 307 308 305 304 305 303 292 285 288 292 293
230 210 243 266 280 282 280 293 298 302 304 310 311 318 330 328 327 316 314 312 309 307 302 300 301 300 302 304 304 300 307 306 305 305 306 305 306 306 302 289 285 287 290 292
243 213 249 252 269 277 278 287 293 300 306 309 312 316 328 326 319 314 312 309 305 301 298 299 299 295 296 301 299 302 304 303 303 305 304 307 309 308 302 293 289 290 294 294
240 223 250 255 265 274 285 290 294 296 300 306 314 312 326 324 317 310 309 306 303 300 298 300 295 293 294 298 302 302 299 298 301 303 302 306 310 308 301 293 287 287 290 292
242 227 245 266 267 282 289 291 290 293 300 306 315 315 325 317 315 311 310 308 304 302 301 296 291 292 294 296 299 298 296 301 302 304 305 306 309 305 299 294 293 294 295 295
240 231 246 257 266 278 289 299 300 302 304 312 309 317 321 319 316 312 311 312 310 306 299 297 297 295 296 298 296 295 300 304 309 308 307 305 303 304 302 299 296 295 296 297
248 242 248 259 269 274 284 295 301 301 302 308 307 314 321 318 312 309 311 313 311 303 300 302 300 300 299 296 298 299 306 310 312 308 306 304 299 302 302 300 299 299 299 300
251 254 262 264 272 274 281 287 298 303 303 304 305 313 316 316 310 310 315 318 313 305 303 307 308 306 304 302 299 300 310 314 311 309 306 302 298 301 301 303 301 302 304 302
262 267 266 279 279 277 287 291 301 304 311 306 304 312 314 310 311 317 315 321 314 300 300 310 312 309 307 301 304 309 312 313 309 308 304 301 299 298 303 303 303 303 304 302
265 270 272 278 282 288 294 296 298 302 302 301 307 313 310 306 308 311 313 323 324 314 301 304 306 306 307 303 308 310 313 310 308 306 304 303 301 305 303 303 303 305 307 302
264 271 275 281 287 295 294 295 298 303 307 307 302 308 305 310 309 309 316 319 318 315 309 307 306 306 305 304 308 303 311 308 308 308 305 302 304 300 305 305 304 310 312 303
263 275 282 290 290 298 303 301 299 304 305 309 307 306 305 306 317 318 318 319 318 316 311 311 307 303 306 305 311 310 310 310 310 307 304 306 306 309 309 309 308 310 313 303
273 282 278 289 288 289 294 295 297 297 297 304 301 301 306 316 318 320 320 320 319 319 319 316 310 306 306 300 321 318 316 315 315 311 307 310 311 311 312 311 309 311 310 300
279 279 282 286 291 294 297 292 297 301 300 302 305 308 313 321 323 325 324 323 322 321 322 314 311 312 309 314 320 319 319 318 317 318 315 315 314 314 314 313 309 307 310 300
269 282 292 294 296 297 296 294 292 292 306 309 311 311 322 325 327 327 328 326 323 322 320 318 317 321 326 325 322 325 320 321 326 320 318 318 316 314 313 311 310 304 306 296
270 280 286 301 304 302 299 307 301 304 314 318 314 319 323 329 330 331 327 328 327 326 325 322 327 330 330 331 327 333 337 329 326 325 321 319 317 315 314 312 308 304 299 288
272 283 290 294 302 291 300 303 308 316 319 322 321 327 332 333 332 331 330 331 331 330 327 329 332 333 332 331 332 331 330 331 328 326 324 324 323 318 313 309 305 298 286 275
286 287 292 301 300 294 300 310 322 323 322 323 325 330 333 332 332 333 334 335 335 332 331 334 333 330 331 331 331 332 332 331 333 331 330 326 320 317 315 308 298 287 275 262
285 292 302 305 300 300 307 318 314 318 327 327 331 335 332 335 336 336 336 339 339 332 336 336 334 330 328 331 334 334 335 338 336 336 331 327 326 324 316 309 300 277 258 242
295 308 309 310 304 309 310 310 312 320 325 328 334 334 335 336 337 338 338 341 337 336 341 336 334 337 332 338 337 339 342 340 340 337 335 334 333 333 327 317 300 268 234 211
303 307 309 303 307 312 314 310 309 317 321 332 333 335 334 337 337 337 341 342 342 345 342 341 338 331 337 344 343 345 343 344 342 342 342 341 342 342 342 340 322 236 195 178
299 304 306 312 315 312 308 307 308 316 325 327 334 332 334 335 335 338 342 346 350 348 345 347 345 338 338 345 350 346 345 346 347 348 350 349 350 350 355 11 42 129 150 168
310 304 308 307 308 302 309 311 312 320 319 326 330 329 331 334 335 339 343 351 353 351 342 350 348 339 338 340 346 346 349 350 353 354 357 356 358 2 17 59 77 116 140 148
294 295 297 298 300 310 312 309 307 311 315 321 326 328 330 332 337 342 347 348 351 353 347 345 347 340 338 337 340 348 352 355 358 0 4 4 8 20 47 63 83 106 121 133
290 293 294 267 304 337 333 314 305 307 311 318 323 327 330 335 338 343 345 347 349 351 350 341 341 340 335 337 339 343 352 357 2 6 11 15 19 28 49 67 81 96 116 131
Height
5895 5897 5897 5897 5896 5895 5894 5893 5892 5891 5891 5890 5887 5886 5883 5879 5876 5871 5867 5863 5859 5856 5853 5851 5847 5843 5839 5834 5830 5826 5821 5818 5814 5810 5805 5801 5796 5791 5786 5781 5778 5775 5772 5768
5893 5895 5893 5894 5894 5893 5891 5890 5889 5888 5886 5885 5883 5882 5879 5875 5871 5866 5862 5858 5854 5850 5847 5843 5840 5835 5831 5826 5822 5819 5814 5810 5807 5802 5797 5792 5787 5782 5776 5772 5768 5765 5762 5758
5889 5893 5890 5891 5891 5889 5889 5887 5886 5885 5882 5880 5876 5877 5874 5869 5865 5861 5856 5852 5848 5845 5841 5837 5833 5829 5824 5819 5816 5811 5807 5803 5798 5794 5788 5783 5778 5773 5767 5762 5758 5754 5751 5747
5885 5889 5886 5887 5888 5885 5885 5884 5882 5880 5877 5875 5873 5867 5870 5864 5859 5854 5849 5846 5842 5839 5835 5831 5826 5822 5817 5812 5808 5804 5799 5794 5789 5784 5778 5772 5767 5762 5757 5752 5748 5744 5740 5735
5883 5884 5882 5884 5885 5883 5882 5881 5879 5875 5873 5870 5868 5862 5864 5859 5854 5849 5844 5840 5836 5831 5827 5822 5818 5815 5810 5805 5800 5795 5791 5786 5781 5775 5769 5763 5758 5754 5748 5743 5738 5734 5729 5724
5879 5880 5880 5879 5880 5880 5878 5877 5873 5871 5869 5865 5864 5859 5858 5851 5847 5842 5838 5834 5829 5824 5820 5816 5813 5809 5803 5798 5793 5788 5783 5778 5773 5766 5760 5753 5747 5743 5738 5732 5727 5723 5718 5712
5875 5877 5876 5877 5877 5876 5875 5873 5869 5866 5863 5861 5857 5853 5852 5845 5839 5835 5831 5827 5823 5819 5815 5810 5806 5801 5796 5791 5784 5780 5775 5769 5762 5755 5749 5743 5738 5733 5727 5722 5717 5712 5707 5701
5872 5874 5875 5875 5874 5872 5871 5869 5866 5858 5857 5856 5852 5849 5845 5839 5834 5829 5825 5821 5816 5812 5807 5803 5799 5795 5789 5784 5776 5771 5765 5758 5751 5745 5739 5732 5726 5720 5715 5709 5705 5700 5695 5689
5868 5870 5871 5870 5868 5868 5865 5863 5860 5854 5851 5847 5845 5843 5839 5832 5827 5822 5818 5814 5809 5805 5802 5797 5792 5787 5781 5774 5769 5761 5753 5746 5739 5733 5727 5720 5714 5709 5704 5698 5692 5687 5682 5676
5865 5865 5866 5864 5863 5860 5859 5857 5854 5850 5844 5840 5838 5836 5830 5825 5820 5816 5812 5808 5802 5799 5794 5790 5783 5776 5772 5764 5754 5746 5739 5733 5727 5722 5716 5709 5703 5698 5692 5687 5682 5676 5671 5665
5860 5860 5861 5859 5857 5855 5854 5851 5847 5844 5841 5836 5831 5831 5824 5819 5815 5811 5806 5801 5796 5792 5787 5782 5775 5767 5761 5750 5744 5736 5730 5724 5717 5710 5704 5698 5693 5688 5682 5677 5671 5666 5660 5654
5855 5854 5855 5854 5851 5849 5846 5843 5840 5836 5834 5831 5827 5825 5817 5814 5810 5805 5800 5795 5791 5785 5779 5772 5764 5757 5750 5742 5734 5727 5720 5713 5706 5699 5693 5688 5684 5677 5672 5666 5661 5655 5650 5644
5849 5848 5847 5846 5844 5842 5839 5836 5834 5831 5828 5826 5822 5819 5812 5809 5804 5800 5796 5790 5784 5778 5771 5764 5756 5749 5741 5731 5724 5715 5709 5702 5695 5690 5685 5679 5673 5667 5661 5655 5650 5645 5640 5635
5844 5842 5841 5840 5838 5837 5835 5832 5829 5826 5823 5820 5817 5813 5809 5805 5800 5796 5789 5783 5776 5769 5762 5754 5746 5738 5730 5717 5711 5705 5701 5694 5688 5682 5676 5669 5664 5658 5652 5646 5641 5636 5631 5627
5838 5836 5835 5834 5832 5830 5829 5826 5824 5821 5818 5815 5811 5807 5804 5799 5793 5787 5781 5775 5768 5760 5753 5745 5736 5727 5719 5712 5706 5700 5693 5686 5680 5673 5668 5662 5656 5649 5643 5637 5631 5627 5621 5618
5833 5832 5830 5828 5826 5825 5823 5821 5819 5816 5813 5809 5806 5802 5798 5793 5787 5782 5775 5768 5761 5753 5744 5734 5724 5717 5710 5704 5698 5693 5685 5678 5673 5668 5661 5654 5647 5640 5633 5626 5620 5615 5611 5608
5828 5828 5827 5823 5821 5820 5818 5815 5813 5810 5807 5805 5802 5799 5794 5788 5782 5777 5769 5761 5751 5741 5732 5723 5715 5709 5704 5698 5692 5687 5680 5674 5667 5660 5653 5646 5638 5630 5622 5614 5608 5603 5599 5597
5824 5823 5822 5820 5818 5816 5814 5810 5808 5804 5802 5799 5796 5792 5788 5783 5777 5770 5761 5752 5743 5733 5723 5715 5709 5704 5698 5693 5687 5681 5675 5669 5661 5653 5646 5637 5627 5617 5608 5598 5592 5588 5585 5585
5819 5818 5816 5815 5814 5812 5808 5806 5804 5801 5799 5795 5792 5788 5784 5778 5771 5764 5754 5745 5736 5726 5717 5710 5705 5700 5694 5689 5683 5676 5670 5663 5655 5646 5636 5626 5616 5604 5591 5579 5571 5569 5570 5573
5815 5813 5812 5810 5808 5806 5804 5802 5800 5798 5795 5791 5788 5784 5779 5772 5765 5757 5748 5739 5730 5720 5712 5707 5701 5696 5690 5684 5678 5672 5665 5657 5648 5639 5628 5614 5599 5584 5567 5553 5548 5548 5554 5560
5811 5809 5807 5805 5803 5802 5800 5798 5795 5794 5793 5788 5784 5779 5772 5767 5760 5752 5744 5735 5725 5714 5708 5703 5697 5691 5686 5681 5674 5668 5661 5653 5643 5633 5619 5603 5584 5564 5545 5534 5529 5532 5540 5549
5806 5805 5803 5801 5799 5797 5795 5793 5791 5790 5787 5783 5779 5773 5768 5762 5755 5749 5740 5731 5720 5709 5704 5699 5693 5688 5683 5677 5671 5664 5657 5649 5638 5627 5612 5593 5571 5549 5532 5523 5521 5524 5533 5543
5803 5801 5799 5797 5795 5793 5791 5788 5786 5784 5783 5779 5774 5769 5763 5759 5753 5745 5737 5727 5715 5707 5702 5696 5691 5685 5680 5675 5668 5662 5654 5645 5636 5622 5607 5588 5565 5544 5529 5524 5523 5526 5534 5543
5797 5796 5794 5793 5792 5789 5787 5784 5782 5781 5778 5775 5771 5765 5761 5756 5748 5740 5732 5721 5713 5706 5700 5695 5689 5683 5677 5671 5665 5659 5652 5643 5634 5621 5607 5588 5567 5547 5534 5531 5532 5534 5540 5547
5793 5792 5790 5789 5788 5785 5783 5781 5779 5777 5774 5771 5767 5763 5758 5751 5743 5735 5726 5719 5711 5703 5697 5692 5687 5679 5673 5668 5663 5657 5650 5642 5633 5623 5610 5594 5576 5561 5551 5547 5546 5548 5552 5557
5789 5788 5786 5785 5783 5781 5780 5777 5776 5773 5770 5767 5763 5758 5752 5745 5738 5730 5723 5716 5709 5701 5694 5688 5684 5678 5672 5667 5662 5656 5650 5643 5634 5626 5615 5604 5589 5577 5569 5565 5564 5564 5567 5571